Weather in Spring Valley

United States     32°52′35″N   116°50′52″W
temp.,
°C
wind,
m/s
gust,
m/s
humid.,
%
clouds,
%
prec.,
mm/h
press.,
hPa
HPBL,
m
7 may, fri
fri723:00+11sse11900 0.0 101710
02:00+10ssw11890 0.0 101510
05:00+9ssw11870 0.0 101510
08:00+15s11591 0.0 1016188
11:00+20wsw43410 0.0 1015699
14:00+22wsw65360 0.0 1013971
17:00+19wsw44415 0.0 1013766
20:00+13sw33732 0.0 101321
8 may, sat
sat823:00+9se11938 0.0 101410
02:00+9sse119132 0.0 1013117
05:00+8ese11894 0.0 1013131
08:00+13sw11600 0.0 1013238
11:00+19wsw32430 0.0 1013712
14:00+22wsw53380 0.0 1011951
17:00+20wsw32450 0.0 1011743
20:00+13wsw11690 0.0 101211
9 may, sun
sun923:00+11se01810 0.0 101310
02:00+10sse11820 0.0 101210
05:00+9ssw11850 0.0 101210
08:00+13ssw11680 0.0 1012226
11:00+19wsw33450 0.0 1012690
14:00+22wsw54360 0.0 10101043
17:00+18wsw44490 0.0 1009786
20:00+12wsw22750 0.0 101013
10 may, mon
mon1023:00+9se019214 0.0 101110
02:00+8ese119124 0.0 1010102
05:00+7se119118 0.0 101081
08:00+11w117616 0.0 1011354
11:00+17wsw32500 0.0 1011755
14:00+21wsw43390 0.0 10091159
17:00+18w42540 0.0 1010797
20:00+12wsw22760 0.0 101114
11 may, tue
tue1123:00+10s01910 0.0 101310
02:00+9ese11930 0.0 101210
05:00+8ne01910 0.0 101210
08:00+15w11620 0.0 1013215
11:00+23wsw33380 0.0 1012859
14:00+25wsw54350 0.0 10111193
17:00+21w43500 0.0 1012619
20:00+14wsw11790 0.0 101411